#timestamp,LO_Frequency,Hit,StdDev 
1583960415.3,286046998.7,N
1583960435.2,286047000.2,N
1583960455.9,286047001.6,N
1583960475.7,286047002.1,N
1583960495.6,286047000.0,N
1583960515.4,286047000.0,N
1583960535.2,286046999.9,N
1583960555.1,286047002.6,N
1583960556.0,286047002.6,N
1583960575.8,286047000.2,N
1583960595.7,286047002.7,N
1583960615.5,286046998.7,N
1583960635.3,286046999.9,N
1583960655.2,286047002.6,N
1583960675.0,286047000.5,N
1583960675.9,286047000.5,N
1583960695.8,286047002.5,N
1583960715.6,286047000.9,N
1583960735.4,286047000.2,N
1583960755.3,286047001.7,N
1583960775.1,286047002.4,N
1583960795.9,286047001.8,N
1583960815.7,286047002.3,N
1583960835.5,286047001.0,N
1583960855.4,286047000.5,N
1583960875.2,286047000.4,N
1583960895.0,286047000.8,N
1583960896.0,286047000.8,N
1583960915.8,286047001.8,N
1583960935.6,286047002.5,N
1583960955.5,286047004.3,Y
1583960975.3,286047002.2,P
1583960995.1,286047001.8,P
1583961015.9,286047002.5,P
1583961035.7,286047000.6,N
1583961055.6,286046998.3,N
1583961075.4,286047001.0,N
1583961095.2,286047002.1,N
1583961115.1,286047000.7,N
1583961116.0,286047000.7,N
1583961135.8,286047000.4,N
1583961155.6,286047002.7,N
1583961175.5,286047004.1,Y
1583961195.3,286047001.8,P
1583961215.2,286047002.7,P
1583961235.9,286047001.9,N
1583961255.7,286046998.4,Y
1583961275.6,286046997.6,P
1583961295.4,286046995.5,N
1583961315.3,286046995.8,N
1583961335.1,286046993.6,N
1583961336.0,286046993.6,N
1583961355.8,286046993.5,N
1583961375.7,286046994.8,N
1583961395.5,286046994.6,N
1583961415.4,286046992.6,N
1583961435.2,286046992.7,N
1583961455.0,286046990.4,Y
1583961455.9,286046990.4,P
1583961475.8,286046997.6,N
1583961495.6,286046996.0,N
1583961515.5,286046993.4,N
1583961535.3,286046995.8,N
1583961555.1,286046995.8,N
1583961575.9,286046995.8,N
1583961595.7,286046995.7,N
1583961615.6,286046995.8,N
1583961635.4,286046994.1,Y
1583961655.2,286046998.7,P
1583961675.1,286046999.2,N
1583961676.0,286046999.2,N
1583961695.8,286046998.7,N
1583961715.7,286046999.4,N
1583961735.5,286046998.1,N
1583961755.3,286046998.4,N
1583961775.2,286046998.4,N
1583961795.0,286046999.4,N
1583961795.9,286046999.4,N
1583961815.8,286047000.5,N
1583961835.6,286046999.1,N
1583961855.4,286046998.4,N
1583961875.3,286046997.8,N
1583961895.1,286046999.5,N
1583961915.8,286046998.4,N
1583961935.7,286046998.8,N
1583961955.5,286047011.9,Y
1583961975.4,286046999.1,P
1583961995.2,286047001.2,P
1583962015.0,286046998.8,N
1583962015.9,286046998.8,N
1583962035.8,286046999.0,N
1583962055.6,286046997.0,Y
1583962075.5,286046999.4,P
1583962095.3,286046998.3,P
1583962115.1,286046998.7,N
1583962135.9,286046998.3,Y
1583962155.7,286046998.4,P
1583962175.6,286046998.8,P
1583962195.4,286046999.0,P
1583962215.2,286046999.1,Y
1583962235.1,286047000.9,P
1583962236.0,286047000.9,N
1583962255.8,286047000.5,N
1583962275.7,286046998.4,N
1583962295.5,286046998.3,N
1583962315.3,286046999.9,N
1583962335.2,286046998.1,N
1583962355.0,286046998.3,N
1583962355.9,286046998.3,N
1583962375.7,286047000.6,N
1583962395.6,286047000.4,N
1583962415.4,286047000.6,N
1583962435.3,286046998.3,N
1583962455.1,286046999.2,N
1583962456.0,286046999.2,N
1583962475.8,286046997.0,N
1583962495.7,286046999.0,N
1583962515.5,286046996.9,N
1583962535.4,286046996.5,N
1583962555.2,286046997.1,N
1583962575.0,286046995.6,Y
1583962575.9,286046995.6,P
1583962595.8,286046999.2,N
1583962615.6,286047000.6,N
1583962635.5,286047001.0,N
1583962655.3,286046998.8,N
1583962675.1,286046996.7,N
1583962695.9,286046999.0,N
1583962715.7,286046999.9,N
1583962735.5,286047002.6,N
1583962755.4,286047000.7,N
1583962775.2,286047000.9,N
1583962795.1,286046999.4,N
1583962796.0,286046999.4,N
1583962815.8,286046996.5,N
1583962835.7,286046999.6,N
1583962855.5,286047000.7,N
1583962875.3,286047000.8,N
1583962895.2,286047000.3,N
1583962915.0,286047000.8,N
1583962915.9,286047000.8,N
1583962935.7,286047000.8,N
1583962955.6,286047000.1,N
1583962975.4,286047000.2,N
1583962995.3,286047002.7,N
1583963015.1,286047002.4,N
1583963016.0,286047002.4,N
1583963035.8,286047002.3,N
1583963055.7,286046999.8,N
1583963075.5,286047004.4,N
1583963095.4,286047004.5,N
1583963115.2,286047006.9,Y
1583963135.0,286047005.1,P
1583963135.9,286047005.1,N
1583963155.8,286047004.9,N
1583963175.6,286047004.5,N
1583963195.5,286047005.5,Y
1583963215.3,286047000.7,P
1583963235.1,286046998.1,N
1583963255.9,286047000.6,N
1583963275.7,286046998.4,N
1583963295.5,286046998.8,N
1583963315.4,286046999.1,N
1583963335.2,286046999.0,N
1583963385.1,286046995.3,E
1583963395.0,286046997.0,N
1583963395.9,286046997.0,P
1583963415.8,286047001.4,P
1583963435.6,286047003.5,N
1583963455.4,286047003.9,N
1583963475.3,286047005.9,N
1583963495.1,286047003.1,N
1583963515.8,286047003.0,N
1583963535.7,286047006.0,N
1583963555.5,286047001.3,N
1583963575.4,286047001.3,N
1583963595.2,286047005.9,N
1583963615.0,286047004.5,N
1583963615.9,286047004.5,N
1583963635.8,286047004.8,N
1583963655.6,286047004.7,N
1583963675.4,286047005.3,N
1583963695.3,286047007.1,N
1583963715.1,286047005.5,N
1583963735.9,286047005.5,N
1583963755.7,286047003.3,N
1583963775.5,286047005.9,N
1583963795.4,286047005.4,N
1583963815.2,286047002.6,N
1583963835.1,286047002.1,N
1583963836.0,286047002.1,N
1583963855.8,286047003.8,N
1583963875.6,286047004.2,N
1583963895.5,286047003.0,N
1583963915.3,286047007.4,Y
1583963935.1,286047001.6,P
1583963955.9,286047002.3,N
1583963975.7,286047003.7,P
1583963995.6,286047003.9,Y
